COSMOS 252 DEB, 3569

Orbit data source: Space-Track

COSMOS 252 DEB, 3569 is space debris in LEO originally from a launch on Fri, 01 Nov 1968 UTC launched from the Tyuratam Missile And Space Complex (TTMTR). Debris objects in space refer to the collection of defunct objects orbiting the Earth. Examples of debris include non-operational satellites, rocket bodies, and fragments generated from explosions, collisions, or faulty payload assembly.

Loading next visibility...
Identifier
3569, 1968-097V
Orbit
LEO
Country
Flag of CISCIS
Related business
Manufacturer
Unknown
Mission
Spacecraft
Bus & Motor
Unknown
Mass
Unknown
Launch date (UTC)
1968-11-01 (58 years ago)
Launch vehicle
Unknown
Launch site
Tyuratam Missile And Space Complex (TTMTR)
Object type
Payload
Rocket body
Debris
Shape & HBR
Unknown shape, 0.1 m
Radar Cross Section
Medium (>0.1 m² and <1 m²)

Expand to show TLE details & history
Last TLE update: 1 week ago

TLE from 1 week ago
0 COSMOS 252 DEB
1 03569U 68097V   26153.33774390  .00004433  00000-0  84712-3 0  9995
2 03569  62.2918  61.1563 0559042 132.2404 232.7490 13.96749652816774
Epoch: 2026-06-02T08:06Z
TLE epoch observation values (Epoch: 2026-06-02T08:06:21.072Z)
Latitude
-0.00005°
Longitude
48.75632°
Altitude
1,166.988 km
Speed
7.139 km/s
True Right ascension
04h 04m 37s
True Declination
0° 00' 00"
Sunlit
Object was in daylight at epoch
Visualization orbit readout
Latitude
Unknown
Longitude
Unknown
Altitude
Unknown
Speed
Unknown
Apparent Right ascension
Unknown
Apparent Declination
Unknown
Sunlit
N/A
Visualization observer readout
Local Sidereal Time
03:13:49
Azimuth
Unknown
Elevation
Unknown
Doppler factor
Unknown
Orbital elements
Apogee altitude
1,311.112 km
Perigee altitude
496.907 km
Semi-major axis
7,282.146 km
Eccentricity
0.0559
Inclination
62.2918°
RAAN
61.1563°
Arg. of periapsis
132.2404°
True anomaly
227.86291°
Mean anomaly
232.749°
Eccentric anomaly
230.28509°
Mean motion
3.49264 °/min
Orbital period
103.07 mins
BSTAR
0.00084712
Loading maneuver chart data...
Computing Atmospheric mass density...

Documentation

Showing up to 5 results
|